RH
23 23 27 32 39 48 60 64 63 71 79 84 89 89 89 92 92 91 93 94 94 93 91 90 85 79 74 72 72 74 76 79 84 88 93 96 96 95 93 88 82 77 73 67 61 56 50 46 44 43 43 39 33 25 18 14 11 11 11 12 13 14 15 15 16 16 16 17 17 17 17 17 17 17 17 16 15 14 13 13 12 11 11 10 10 9 9 9
26 28 34 41 50 66 74 67 67 84 93 96 99 98 98 98 96 95 96 98 98 98 96 90 82 76 75 75 76 79 83 89 93 97 100 100 96 90 85 80 75 69 63 57 52 48 47 47 46 42 34 24 17 13 12 12 13 14 15 16 17 17 18 19 19 19 20 20 20 20 20 21 21 20 20 19 18 17 17 16 15 13 13 12 11 10 9 9
32 38 47 57 68 81 86 76 78 92 99 103 106 106 105 102 101 100 100 102 102 99 92 84 78 79 80 81 85 92 97 101 103 103 100 94 87 82 77 71 65 59 54 51 50 50 50 45 36 25 17 13 12 13 15 16 16 17 18 19 19 20 20 20 21 21 21 21 22 22 21 21 21 21 21 20 20 19 19 18 17 16 16 14 13 12 11 11
36 47 61 80 88 87 90 89 93 100 101 107 109 106 106 106 105 104 103 102 97 92 87 83 85 88 90 93 98 103 103 103 102 98 92 86 81 76 69 62 57 54 53 54 53 49 40 28 18 14 13 15 16 16 18 18 19 20 20 20 20 20 20 20 20 20 20 20 20 20 20 19 19 19 19 19 19 18 18 18 18 18 18 16 15 14 13 12
39 53 72 94 96 87 87 91 98 108 107 107 108 103 101 104 105 106 105 102 99 98 95 97 101 100 102 106 106 105 103 101 99 93 89 84 76 68 61 57 56 56 56 53 44 32 21 15 14 15 16 17 18 18 19 20 20 20 20 20 19 19 19 19 19 19 19 18 18 18 18 18 17 18 17 17 16 16 16 16 16 16 16 16 16 15 15 14
40 58 76 89 92 85 79 82 94 107 109 104 103 101 100 100 101 103 104 103 104 104 103 106 109 107 110 112 108 106 104 100 97 91 85 75 67 61 58 58 58 57 50 37 24 16 14 15 16 17 18 19 19 20 20 19 19 19 19 19 19 19 18 18 18 18 18 18 18 18 18 18 17 16 16 15 15 14 14 13 14 14 14 14 14 15 15 14
37 56 75 87 98 85 70 84 98 105 110 105 101 100 101 101 100 100 101 101 102 103 104 107 107 109 112 110 107 106 103 98 92 83 74 66 61 59 60 61 56 44 29 18 15 15 16 17 18 19 19 20 20 19 19 19 18 18 18 19 19 18 18 18 18 18 19 19 19 18 18 18 17 16 15 14 13 12 12 12 11 11 11 12 12 13 13 13
38 51 72 94 107 85 69 93 108 108 110 105 101 101 101 100 100 100 100 100 101 104 107 106 106 109 110 106 103 101 95 89 81 73 66 61 61 63 63 53 37 22 15 15 17 18 18 19 20 20 20 20 19 18 18 19 18 19 19 19 18 18 18 19 19 19 20 20 21 20 19 19 17 16 15 13 13 12 11 10 10 10 9 9 10 10 11 11
38 47 76 101 107 85 73 95 110 109 105 101 101 101 101 100 100 100 101 102 103 106 107 105 106 107 106 101 98 93 86 79 71 66 63 64 66 62 48 29 18 15 17 18 18 19 19 20 20 19 19 19 18 18 18 18 18 19 19 18 18 19 19 19 21 22 24 25 24 23 21 20 18 16 15 14 12 11 10 10 9 8 8 8 8 8 9 9
48 48 67 91 103 92 77 88 106 107 101 101 101 100 100 99 100 100 102 104 104 106 105 105 105 103 100 96 93 87 79 71 65 64 67 68 60 40 24 16 16 18 19 19 20 20 19 20 20 19 19 18 19 20 19 20 21 21 20 19 19 21 23 25 28 30 31 30 27 24 22 22 19 17 16 14 12 10 9 8 7 7 7 6 6 6 6 6
68 69 61 67 81 83 71 79 102 107 101 100 99 97 98 98 100 101 101 103 103 104 104 103 103 100 98 93 87 79 71 67 67 70 69 55 34 19 16 18 19 19 20 20 20 19 19 19 19 19 19 19 21 22 22 23 23 21 21 22 23 27 31 35 36 37 37 34 30 27 25 25 23 20 18 14 12 10 8 7 6 6 5 4 4 4 4 4
85 96 82 63 53 55 65 86 104 105 101 100 100 98 99 100 100 102 101 100 98 100 103 102 100 98 93 85 78 73 69 71 73 68 50 28 17 17 19 20 20 20 20 19 19 19 19 19 19 20 20 22 23 23 24 24 23 23 24 26 29 31 34 37 40 43 43 39 36 33 31 30 27 24 21 17 13 10 7 6 5 4 4 3 3 3 3 3
97 101 95 67 46 50 72 99 106 101 100 100 100 97 97 100 101 102 100 97 96 98 100 100 97 92 83 76 73 73 75 75 67 46 25 16 18 20 19 20 21 20 19 19 19 19 19 20 21 22 24 25 25 24 24 24 25 26 28 30 33 34 35 40 45 47 48 46 42 38 34 33 31 28 25 20 15 10 7 6 4 4 3 3 3 3 3 3
100 100 94 61 43 58 83 105 104 99 101 100 100 95 91 95 97 95 94 98 99 99 101 99 92 82 75 75 77 79 77 64 42 22 16 19 21 19 20 21 20 19 18 19 19 20 21 21 22 24 26 26 25 26 26 27 29 30 31 32 34 37 39 44 49 50 52 52 46 42 37 35 33 30 27 23 17 12 8 6 4 3 3 3 3 3 3 3
102 101 87 50 33 52 83 104 103 100 102 100 101 98 92 91 90 87 91 100 100 100 101 94 83 77 78 81 82 77 61 38 21 17 20 21 19 20 22 20 19 19 18 18 19 22 23 24 24 26 26 25 26 27 28 29 29 30 31 33 35 39 41 45 50 51 53 53 48 44 40 36 33 30 28 25 21 15 10 6 4 3 3 3 3 3 3 3
98 84 68 44 29 45 81 105 102 100 103 100 100 101 94 86 84 91 96 99 101 100 94 83 79 81 86 86 76 57 34 20 19 21 21 19 20 21 20 19 18 18 18 19 21 25 27 26 26 27 26 27 27 27 28 29 31 31 31 33 35 37 39 43 48 49 50 50 46 41 38 35 32 31 31 30 26 19 13 7 4 4 3 3 3 3 3 3
80 64 59 45 29 37 73 102 102 99 102 100 100 100 92 86 91 99 100 101 100 94 85 82 86 89 87 76 53 32 21 20 23 21 20 20 21 21 19 18 18 18 19 21 24 26 27 27 27 26 26 28 29 29 29 30 30 30 29 30 33 35 36 39 43 45 47 46 43 40 38 36 36 36 35 34 30 23 15 8 5 4 4 4 4 3 3 3
59 52 51 38 28 33 66 100 103 99 101 100 100 96 87 90 101 103 101 101 95 89 89 91 92 87 74 51 29 21 21 23 22 20 21 21 21 20 18 18 18 19 21 22 23 24 26 27 27 27 29 32 32 31 29 28 28 27 26 27 31 34 35 36 39 42 45 46 43 42 43 41 41 40 36 34 31 25 17 10 6 5 4 5 4 4 4 3
37 39 38 34 29 32 69 103 101 99 102 99 101 93 84 91 101 101 98 96 93 95 98 96 90 75 50 28 19 21 22 22 22 22 22 22 21 19 18 18 19 20 20 21 23 25 27 27 27 30 32 31 30 29 28 28 27 28 27 27 29 33 35 36 38 41 46 48 46 47 49 47 43 38 33 31 29 25 19 11 6 5 4 5 5 5 4 4
25 33 36 36 31 40 82 106 99 100 101 98 101 95 91 97 101 101 99 98 99 100 97 91 75 49 27 20 21 22 22 23 24 23 22 22 20 19 18 18 18 18 19 22 25 26 26 27 30 32 31 29 30 30 30 29 28 29 30 29 30 32 35 36 37 42 47 50 52 52 51 48 41 36 32 30 27 23 19 13 7 4 4 4 4 4 4 4
25 34 36 35 34 51 89 104 100 101 100 100 102 99 100 102 100 101 101 101 101 98 90 72 46 26 19 22 22 22 23 24 23 22 22 22 21 19 18 18 18 19 21 24 25 25 26 29 33 32 30 30 30 30 29 29 29 31 33 31 29 31 35 36 37 42 47 53 56 51 49 48 39 35 35 31 26 23 20 15 9 6 4 4 4 4 4 4
28 32 32 34 39 58 87 102 103 101 100 101 101 100 102 101 101 102 100 103 102 89 66 40 24 20 22 22 22 23 24 23 23 23 23 22 21 19 19 19 20 21 22 24 25 26 28 30 31 30 29 28 28 27 27 30 32 33 34 32 30 30 33 35 37 41 47 52 53 49 48 45 39 39 39 33 28 25 23 19 13 8 5 4 4 4 4 3
27 29 32 36 48 72 95 102 101 100 101 101 100 99 98 99 102 101 102 106 94 64 36 22 21 22 22 23 24 24 23 22 21 21 20 20 21 21 21 21 22 23 25 26 27 27 28 29 29 29 27 27 26 26 28 33 35 34 34 33 30 30 30 32 35 39 45 48 48 50 47 42 42 44 39 34 32 29 25 23 18 12 7 4 4 4 4 4
26 30 35 44 66 92 101 100 99 100 101 100 98 96 97 100 101 101 105 96 66 35 22 21 23 22 24 25 24 23 21 21 20 19 19 20 22 24 24 25 26 27 29 29 28 28 28 28 28 28 27 26 26 28 31 34 34 33 34 34 31 29 30 31 33 38 43 43 45 49 47 44 44 42 38 36 34 31 30 28 24 17 10 6 4 4 4 4
29 34 46 67 90 102 100 99 101 100 99 97 95 97 100 101 101 104 96 67 35 21 22 23 23 25 26 25 23 22 20 20 20 19 20 22 25 27 28 28 28 28 29 28 26 27 28 28 28 27 25 27 29 30 32 32 32 32 34 36 35 31 29 32 35 37 39 40 43 46 46 48 47 42 40 39 36 35 35 32 28 21 14 8 5 4 4 4
35 49 74 95 102 100 98 101 101 98 96 94 97 101 101 100 103 97 69 37 23 22 24 24 25 27 26 23 22 21 21 21 21 21 23 25 26 28 29 29 29 28 26 26 26 27 28 29 28 26 26 29 31 31 30 30 30 31 33 37 40 37 31 32 35 37 37 39 42 44 48 50 48 46 45 43 41 40 38 35 31 26 19 12 7 4 4 4
55 79 99 102 99 99 101 102 99 94 93 96 101 101 100 102 96 71 40 25 24 24 25 25 26 25 24 23 21 21 22 22 23 24 24 25 25 27 29 30 30 28 26 26 28 28 28 29 29 28 29 31 32 31 29 28 29 30 31 34 41 44 39 33 34 36 35 37 39 43 49 51 48 48 48 47 47 46 45 44 39 31 25 17 10 6 4 4
85 100 101 98 100 102 99 97 93 93 97 101 101 99 101 95 71 40 24 24 25 25 26 26 25 25 23 23 23 24 24 24 26 25 25 26 27 27 28 30 30 29 28 28 30 30 30 29 30 31 32 32 33 31 30 29 29 28 29 31 36 44 46 38 33 35 34 35 38 41 48 51 47 45 47 49 51 53 54 53 46 37 30 23 16 10 6 4
101 102 98 100 100 93 86 88 92 97 102 100 99 100 92 69 40 23 22 25 25 27 27 26 25 25 25 26 26 26 26 27 28 27 28 29 28 29 30 31 30 30 31 32 34 35 33 31 31 31 31 31 33 33 31 31 29 28 28 29 31 39 47 41 32 32 34 34 36 41 46 50 49 47 49 52 54 57 58 55 50 43 35 29 23 15 9 6
103 104 103 98 91 86 86 93 99 101 100 99 99 91 67 39 24 22 25 25 27 29 28 26 26 26 27 28 27 28 30 31 31 31 31 31 31 31 32 32 32 33 35 37 39 38 36 35 34 33 32 31 33 35 33 30 29 28 27 26 28 33 42 43 34 30 33 33 34 40 45 47 50 51 52 54 56 56 55 52 51 48 41 34 27 21 14 8
103 104 99 90 87 92 98 102 102 100 99 98 89 65 39 24 22 25 26 25 28 30 28 27 27 28 30 30 30 31 32 33 32 31 30 29 30 32 34 36 37 38 39 40 41 40 40 39 37 36 34 33 35 36 33 31 29 28 27 26 26 28 35 42 39 31 30 32 33 37 42 45 49 52 51 52 54 54 53 51 50 50 47 40 32 25 19 12
101 96 92 91 95 99 101 101 99 99 98 86 62 37 23 23 25 26 25 26 29 30 28 29 29 31 34 35 34 32 32 34 33 32 32 32 34 37 39 41 41 41 41 41 43 45 45 42 39 39 38 37 38 37 35 32 30 29 28 26 25 25 30 37 40 34 29 30 32 34 39 43 48 51 50 50 51 52 53 52 50 48 48 45 38 30 24 18
93 92 95 98 100 101 100 100 100 97 84 59 36 24 22 25 26 26 26 28 30 31 31 31 32 35 37 36 34 32 33 35 36 36 36 37 39 40 41 43 45 44 44 45 46 48 48 45 42 43 43 42 41 39 36 34 32 30 28 27 25 24 26 31 37 37 31 29 30 33 36 41 45 49 50 49 49 50 52 52 51 49 48 48 44 37 30 24
93 97 100 101 100 100 100 100 93 76 53 33 25 24 25 26 26 27 27 28 32 34 33 33 34 36 36 35 33 33 34 37 38 39 39 41 42 43 45 48 51 50 50 52 51 49 48 47 45 44 44 44 44 43 38 35 34 32 30 29 27 24 24 28 34 38 34 29 28 31 35 40 44 46 48 48 47 49 51 52 53 53 52 51 50 44 36 29
101 100 100 100 100 101 100 91 69 45 29 25 26 27 27 27 27 28 28 30 35 38 36 35 35 36 35 34 33 33 35 37 39 39 41 44 47 49 52 53 53 52 54 56 55 51 49 49 48 45 45 46 47 46 41 37 36 33 30 29 29 26 24 25 31 38 37 31 28 30 35 40 43 44 47 49 49 49 51 54 55 56 56 54 53 50 43 35
102 100 100 100 100 99 86 61 39 27 25 27 28 28 28 28 28 29 29 32 37 40 39 38 37 36 35 34 34 35 37 38 39 41 45 50 54 56 55 53 50 54 57 58 58 55 52 51 49 49 49 47 47 48 44 40 39 35 31 29 28 28 25 24 28 37 39 33 30 30 32 37 41 44 48 51 52 52 52 54 56 57 58 55 53 52 48 41
101 100 100 100 96 80 53 32 25 26 28 29 29 29 29 29 29 30 31 34 40 42 41 40 38 35 34 35 36 38 39 40 41 44 48 54 58 58 56 51 50 56 61 58 57 57 56 55 55 54 53 49 46 46 46 42 39 36 34 30 28 26 26 24 25 34 39 35 32 31 31 34 38 44 50 51 52 53 52 53 55 57 58 56 54 52 51 47
100 100 100 95 76 47 29 25 27 28 30 31 31 30 30 30 30 31 33 38 43 44 43 41 38 36 35 36 37 39 41 43 43 44 47 52 56 57 55 53 54 61 63 58 56 58 58 59 59 57 55 53 48 44 43 40 36 38 38 34 29 27 27 26 24 30 38 36 32 32 31 32 36 43 48 48 50 52 53 51 52 54 56 56 54 52 51 49
100 103 97 77 48 28 25 28 29 31 33 33 31 31 31 31 31 33 36 40 44 45 45 43 40 37 35 35 36 39 43 44 44 44 46 49 53 55 55 57 62 66 63 56 53 56 60 61 61 59 57 56 52 46 42 38 35 38 40 36 33 29 28 28 25 27 36 39 35 32 31 32 35 42 45 46 48 51 53 52 51 52 54 56 55 53 51 49
102 100 81 52 31 25 27 29 31 34 35 33 32 32 32 32 32 35 39 42 45 46 46 45 42 39 35 35 37 41 45 47 47 47 47 47 51 57 61 64 67 69 63 57 53 56 62 64 64 64 61 59 57 50 45 42 39 38 40 39 36 32 30 29 26 25 33 41 38 33 32 32 35 40 43 46 51 54 56 55 53 52 53 55 56 54 52 50
97 79 53 34 26 26 29 31 34 35 34 33 33 32 33 34 34 38 40 42 46 48 48 47 44 39 37 38 40 43 46 48 49 49 49 49 53 59 64 67 69 68 62 58 55 56 60 64 66 68 66 63 62 57 50 45 43 40 40 40 38 36 34 31 28 25 30 41 42 36 32 32 34 39 43 48 55 59 59 58 56 53 53 54 56 57 55 51
74 50 33 28 27 29 32 34 35 35 35 34 33 33 34 34 36 39 41 43 46 48 49 47 44 41 41 43 45 46 48 48 49 50 51 52 55 61 65 68 68 66 62 60 58 56 57 62 66 69 68 66 65 62 54 46 44 42 39 38 38 38 37 34 30 26 28 37 44 39 34 33 35 41 46 51 57 62 62 61 59 56 54 54 56 58 58 54
46 32 27 28 29 31 34 35 36 36 35 35 34 34 34 35 38 40 41 44 46 48 49 48 44 42 45 47 48 49 50 51 51 51 52 54 57 62 67 67 67 66 64 63 61 57 55 55 58 60 61 62 60 58 53 46 43 41 37 36 37 39 38 36 32 28 26 32 41 42 36 34 37 43 51 54 58 64 65 64 63 59 56 54 54 57 60 58
32 28 28 30 31 33 35 35 36 36 36 35 35 35 36 37 39 40 41 45 48 50 51 50 45 44 47 49 49 51 53 54 55 54 54 54 56 61 64 65 65 66 66 67 65 61 55 50 50 52 53 54 53 50 48 46 43 42 38 36 38 41 41 37 32 29 26 28 37 42 39 37 40 45 52 56 59 66 69 68 66 63 59 55 54 55 58 60
29 28 30 32 33 35 36 36 36 36 35 35 35 36 37 40 42 41 41 45 49 52 53 51 46 45 48 50 48 50 52 53 54 55 54 53 54 56 59 62 64 66 67 70 69 67 63 54 49 51 53 53 52 51 51 50 49 46 42 38 39 43 43 39 34 30 26 27 36 43 39 37 41 45 50 56 61 66 70 71 70 66 62 58 55 56 57 59
28 29 33 34 35 36 37 37 37 36 35 35 35 35 37 42 45 43 42 46 51 54 55 54 49 46 48 49 46 45 46 47 49 51 52 52 52 53 56 59 62 65 67 69 69 70 70 63 55 55 59 60 60 60 58 56 54 51 48 42 41 44 45 43 37 31 27 27 35 44 41 37 39 42 46 52 59 64 68 71 72 69 66 61 58 57 57 58
30 33 35 36 37 37 38 38 37 36 35 35 35 35 37 43 46 45 44 47 51 54 56 55 52 48 48 49 47 45 45 45 46 48 49 49 50 51 53 55 57 60 61 63 64 65 68 69 65 60 61 63 64 63 60 58 56 54 51 47 45 45 47 45 39 34 29 25 32 44 45 39 38 40 41 46 55 63 67 69 71 70 68 65 61 58 58 58
33 35 37 38 38 39 39 39 38 36 36 36 36 36 38 42 45 46 46 46 49 53 55 55 53 51 49 49 49 48 48 48 48 49 49 49 49 49 49 49 51 53 54 54 56 57 61 67 71 68 65 63 63 63 62 59 57 54 52 51 49 46 47 47 41 36 32 25 28 42 47 41 39 40 41 45 52 61 67 67 68 69 69 68 65 61 60 60
36 38 39 39 39 40 40 39 38 37 36 37 36 36 38 40 42 45 47 48 49 51 52 52 52 52 51 49 49 48 49 49 49 48 48 48 48 48 48 48 48 48 49 49 50 53 56 61 68 72 69 65 64 64 63 61 58 54 53 54 52 48 47 47 43 37 34 27 25 39 49 44 39 40 42 47 53 60 66 67 67 69 70 71 71 66 62 62
39 40 40 40 40 40 40 39 38 37 37 38 39 39 40 41 42 44 48 50 50 50 51 51 51 52 54 52 51 51 50 50 49 47 46 44 45 46 47 48 48 48 48 48 49 51 53 56 62 68 69 66 64 63 62 60 57 55 54 53 53 52 49 47 44 39 35 30 25 36 49 46 41 42 44 48 55 61 67 70 69 70 71 74 77 74 67 64
41 41 41 41 41 40 40 41 41 40 41 41 42 44 45 46 46 46 48 49 50 50 51 51 51 52 56 57 56 54 53 52 51 48 46 44 43 43 43 45 47 48 48 49 49 50 52 54 57 63 67 63 59 59 58 58 58 57 54 51 52 55 53 48 45 41 37 31 25 33 49 49 44 45 45 48 56 63 69 73 73 74 76 79 84 81 73 67
42 43 43 42 43 42 41 42 42 42 43 42 43 45 48 49 49 49 49 49 49 50 50 51 53 55 58 60 60 59 57 55 53 50 48 46 43 43 43 43 44 46 47 49 49 49 51 54 54 57 63 63 60 59 59 59 60 57 53 50 51 56 55 49 45 41 38 34 26 30 48 51 45 47 46 47 56 65 70 75 76 78 82 85 88 85 77 71
Wind_Speed
26 27 29 31 33 34 35 35 33 32 31 31 31 31 31 31 31 30 29 28 27 27 26 26 27 28 29 30 30 31 32 33 34 35 36 38 39 40 41 43 44 46 48 50 52 54 56 58 59 60 61 61 61 61 60 59 59 58 59 59 59 60 62 63 64 67 68 70 72 74 75 77 79 80 82 85 86 88 89 90 92 93 93 93 94 95 95 95
25 25 27 29 31 32 33 33 32 31 30 30 30 30 30 30 30 30 29 28 27 26 26 27 27 28 29 30 31 32 32 33 34 35 36 37 38 40 41 43 45 47 50 52 54 55 57 58 59 59 58 57 56 55 55 55 55 55 56 57 57 58 59 61 62 64 65 67 69 70 72 74 77 79 81 84 87 89 90 92 95 95 96 96 97 97 96 96
25 25 26 27 29 30 31 31 31 30 30 29 29 29 29 30 29 29 28 27 27 26 27 27 27 28 29 30 30 31 31 32 33 34 36 37 38 40 42 44 47 49 51 53 55 56 57 57 56 54 53 52 51 51 51 52 52 53 53 53 54 54 55 57 58 59 61 62 64 66 68 70 72 75 79 82 85 88 88 91 95 96 99 100 101 101 101 101
25 25 25 26 28 30 30 30 30 29 29 28 28 28 28 28 28 28 27 26 26 26 27 27 28 28 29 29 29 29 31 32 33 35 36 38 39 42 44 46 49 51 53 54 55 55 54 52 50 49 48 48 49 49 48 48 48 48 48 49 49 50 51 52 54 55 57 58 60 62 65 67 69 71 76 79 82 86 87 89 92 95 98 101 103 104 104 105
26 26 25 26 28 30 31 31 30 28 27 27 26 26 27 27 27 26 26 26 26 26 26 27 27 27 28 28 28 30 31 32 33 35 37 39 41 43 46 48 50 52 53 54 53 51 49 47 46 46 46 46 46 45 45 44 44 45 45 46 47 48 49 51 52 54 55 57 59 61 63 66 67 68 72 76 79 83 85 87 90 93 96 99 102 104 106 108
28 27 27 27 27 29 31 31 29 28 26 25 25 25 26 25 24 24 24 24 25 25 25 25 26 26 26 27 28 30 31 32 34 36 38 40 43 45 48 49 51 52 52 50 48 45 44 44 44 44 43 43 42 42 43 43 43 43 44 45 46 47 49 50 52 53 55 57 58 60 61 65 67 66 69 73 76 79 82 85 88 91 93 97 100 103 106 108
28 28 28 27 27 30 30 28 28 27 27 26 25 25 25 23 22 22 23 23 23 23 23 24 24 25 26 27 29 30 32 33 35 37 40 42 45 47 49 50 50 49 46 44 42 41 41 41 41 41 40 40 40 41 42 43 43 42 42 43 45 47 48 50 51 53 55 57 59 61 62 65 67 67 69 71 73 76 79 82 85 88 91 93 96 100 102 105
29 29 29 28 29 32 29 27 27 26 26 25 25 25 24 23 22 22 22 22 22 23 23 23 23 24 26 28 29 31 32 34 36 39 42 44 46 47 48 48 46 43 40 39 39 39 39 39 39 38 38 39 39 40 40 40 41 41 41 42 44 47 48 51 53 55 58 61 64 65 65 67 68 69 70 70 71 73 75 77 80 83 86 89 92 95 98 101
31 30 30 31 32 32 29 27 27 26 24 23 24 25 23 22 21 21 21 22 22 22 22 22 23 24 26 29 30 32 33 36 38 41 43 45 46 46 45 42 39 37 37 37 37 37 37 37 36 36 37 38 38 39 39 41 42 42 42 43 45 49 52 55 58 61 65 67 69 70 71 72 72 72 72 72 71 71 72 74 75 78 80 83 85 88 91 94
30 31 32 33 33 32 29 28 26 24 21 21 23 23 22 21 20 19 19 20 20 20 21 22 23 25 27 29 31 33 35 38 40 42 43 44 44 41 38 36 35 34 34 34 35 35 35 34 35 35 36 37 38 40 42 43 45 46 47 48 50 55 59 62 65 68 71 73 74 74 76 79 78 77 77 74 73 72 71 72 73 74 75 77 79 81 83 86
29 29 31 33 34 32 29 26 25 23 20 20 23 21 20 20 18 17 17 18 18 19 21 22 23 25 27 30 32 34 37 39 41 42 42 41 38 35 33 32 32 32 32 33 33 33 33 33 34 36 36 38 39 42 44 46 49 51 53 55 56 59 63 67 70 73 76 78 80 81 81 84 84 83 82 79 76 74 72 71 71 71 71 72 73 74 76 78
29 29 30 32 34 32 28 26 24 22 19 20 21 21 20 19 18 18 18 19 20 21 21 22 24 27 29 31 33 36 38 39 40 40 39 35 32 30 30 30 30 30 31 31 32 32 33 33 35 36 37 38 40 43 46 50 53 56 57 59 60 61 63 68 73 77 80 82 85 87 87 89 89 89 89 85 82 78 75 72 70 69 68 67 67 68 69 71
29 30 32 32 31 29 27 26 24 22 20 19 20 22 21 20 19 19 20 20 20 21 22 24 26 28 30 32 34 36 38 39 38 36 32 29 28 28 27 27 28 29 29 30 31 32 33 34 35 37 38 40 42 45 49 53 56 58 59 59 61 63 65 70 75 78 83 86 88 89 90 92 93 95 95 92 88 84 80 76 72 69 66 65 64 63 64 65
30 32 35 34 30 27 26 25 23 21 20 19 20 23 23 21 21 20 20 19 19 20 23 26 28 29 31 33 35 36 37 36 33 30 27 26 26 26 25 26 27 27 28 30 31 32 33 35 36 37 39 41 45 49 53 55 56 56 57 59 61 65 67 71 76 80 84 87 88 90 92 95 97 98 100 98 94 90 85 80 75 70 66 63 61 60 60 60
36 38 39 34 29 27 26 24 23 21 21 21 21 23 24 22 21 20 18 17 19 22 24 27 29 30 32 33 34 35 34 31 28 25 24 24 23 24 24 25 26 27 28 29 31 33 34 35 37 39 41 44 47 50 52 53 54 55 56 59 62 65 69 74 79 81 83 86 89 91 94 96 99 101 103 103 100 96 91 84 77 72 67 62 59 57 56 55
43 43 40 34 28 26 25 25 23 21 21 22 20 21 22 20 18 16 15 16 19 23 25 28 29 30 31 32 32 31 29 26 23 23 22 22 22 22 24 25 26 27 29 31 32 33 34 37 40 42 44 48 50 50 51 52 54 56 58 61 63 66 69 74 79 81 83 86 89 92 95 98 101 103 105 106 104 100 94 88 81 75 69 64 60 57 54 52
47 43 39 34 28 25 25 23 20 18 19 20 21 21 20 16 14 14 15 18 22 24 26 28 29 30 30 30 29 26 23 21 21 21 20 21 21 22 23 24 25 27 29 30 31 33 36 40 42 43 47 52 52 52 51 51 52 54 57 62 67 69 70 72 76 81 85 88 89 92 96 98 101 103 103 104 103 101 96 88 82 77 72 68 64 60 57 54
47 43 40 35 28 25 24 22 18 17 17 16 18 20 18 14 13 15 18 21 24 25 26 27 28 28 28 27 23 20 19 19 19 19 19 20 20 21 22 24 26 28 29 30 33 36 39 41 42 45 50 52 51 52 52 52 53 55 57 61 67 72 73 73 75 80 85 88 89 92 95 96 98 99 99 99 100 98 94 87 80 76 73 70 68 65 62 59
44 41 38 34 28 25 24 23 20 19 18 15 16 18 16 14 15 18 20 22 24 24 25 26 27 26 24 21 18 17 17 18 17 18 19 19 19 21 23 26 28 30 32 35 37 37 38 41 44 48 48 48 49 52 54 56 58 60 62 63 67 72 74 75 78 82 85 88 89 90 92 93 93 95 96 97 97 95 92 86 79 74 70 67 66 65 64 63
39 38 37 34 29 25 25 24 22 21 20 18 17 17 15 14 16 18 20 22 22 23 24 24 24 22 19 16 16 16 15 15 15 16 17 17 19 22 25 28 30 33 36 37 36 36 38 42 45 46 46 47 51 55 59 60 60 63 66 68 68 71 75 76 78 82 86 89 90 89 89 90 91 93 96 96 95 94 93 89 82 75 70 66 64 63 62 62
38 38 36 33 27 25 25 23 21 21 19 17 16 15 13 14 16 18 19 20 21 22 22 22 20 16 14 14 14 13 12 12 13 14 15 18 21 24 27 30 33 36 36 35 35 38 40 42 44 46 48 51 54 57 61 62 64 66 69 70 69 71 76 79 79 82 87 91 90 87 87 89 91 94 96 96 96 96 96 94 89 82 75 70 65 62 61 59
38 37 34 30 25 24 23 21 20 19 17 17 17 16 15 16 18 19 19 20 20 20 19 17 14 13 12 12 11 10 10 10 11 13 16 20 24 27 29 32 34 35 35 35 36 38 40 41 43 47 50 53 55 58 62 66 68 69 69 70 70 70 73 78 81 84 89 92 90 87 86 88 92 94 95 97 99 100 99 99 96 88 80 73 68 64 62 60
36 34 30 26 23 21 19 20 20 19 18 19 19 18 17 18 18 18 18 19 19 17 15 12 11 11 10 9 8 8 7 8 10 12 17 21 25 28 30 32 34 34 35 36 37 39 40 41 43 48 51 53 55 59 63 68 70 70 70 71 73 74 74 76 80 84 88 89 89 89 88 87 89 92 95 98 101 103 103 103 100 94 86 78 72 67 64 61
33 31 27 24 22 21 21 22 21 19 19 21 20 18 17 16 16 17 18 18 16 13 11 10 10 9 7 5 5 5 6 8 11 14 18 22 25 28 30 32 33 34 36 37 39 40 41 42 44 48 51 53 56 60 64 67 69 70 72 73 75 77 79 80 82 85 86 86 88 89 88 88 89 91 95 99 101 104 106 105 103 99 92 84 76 70 66 62
31 28 25 23 23 24 25 23 20 19 19 19 18 16 15 15 16 17 17 15 12 9 9 9 8 6 4 4 4 5 7 10 13 16 20 23 25 27 29 31 33 34 36 38 40 41 42 44 46 48 50 54 57 60 64 66 69 72 74 76 77 78 81 84 86 86 85 86 87 87 86 88 90 92 96 99 101 104 105 106 105 102 97 89 81 75 70 66
30 28 26 25 26 27 25 22 21 21 20 18 15 14 14 15 17 16 14 11 8 8 8 7 5 4 3 4 5 8 10 12 15 18 21 23 25 27 29 32 33 35 37 39 42 44 45 46 47 48 51 55 58 61 63 65 69 73 75 78 80 81 83 85 87 86 85 87 88 89 90 90 90 93 97 99 102 104 105 107 107 106 102 95 87 80 75 71
30 29 28 28 28 26 23 22 23 22 18 15 13 13 15 16 16 14 11 7 6 7 7 5 4 3 4 5 7 9 11 14 17 19 21 23 25 27 29 32 33 35 38 41 43 45 46 47 49 50 52 56 59 61 62 65 69 73 76 79 81 82 83 85 86 86 86 87 88 91 94 94 92 93 96 99 103 105 108 110 110 108 106 101 95 88 81 76
31 30 29 29 28 26 25 23 21 18 14 13 14 15 16 15 13 10 7 5 6 7 6 5 4 4 5 7 9 10 12 15 18 19 21 23 25 27 30 32 34 36 39 42 44 46 47 49 50 52 54 57 59 61 64 67 70 72 76 78 80 82 84 85 86 87 87 88 90 93 96 97 95 95 97 100 103 107 111 112 112 111 110 108 103 96 88 81
32 30 30 29 28 27 25 21 17 15 14 14 15 15 15 13 10 7 6 6 7 6 5 5 4 4 6 8 9 11 13 16 18 20 22 24 25 28 31 33 35 38 41 44 45 47 48 50 52 54 55 57 60 63 67 69 70 72 74 75 78 81 83 84 85 87 90 91 93 97 99 98 98 98 100 103 105 108 110 111 112 113 112 111 108 102 95 88
31 29 29 28 26 23 20 17 15 15 15 15 15 14 12 10 8 6 6 7 7 5 5 4 4 4 6 8 10 12 14 17 19 21 22 23 25 28 31 34 38 41 43 44 45 46 48 51 53 54 55 57 60 64 66 68 70 71 72 74 77 80 82 84 85 87 90 93 96 100 101 99 99 101 102 104 106 106 107 109 111 113 113 111 109 106 100 94
28 28 28 25 21 18 16 16 15 15 16 15 14 12 10 9 7 6 7 7 6 5 5 4 4 5 6 8 11 13 15 18 19 21 22 24 27 31 34 37 40 41 42 42 44 46 49 51 53 54 55 57 60 63 66 69 71 73 74 76 76 77 79 83 86 89 92 95 98 99 99 101 104 105 103 102 103 104 105 107 108 111 112 112 110 108 105 100
27 26 23 20 18 16 16 16 16 16 15 13 12 11 10 8 7 8 8 8 7 6 5 4 4 5 7 9 12 14 17 19 21 22 24 26 29 31 33 36 38 40 41 42 44 47 49 50 51 53 55 56 59 63 67 69 72 74 76 76 75 75 77 81 87 92 94 97 99 98 99 104 107 106 104 102 102 104 105 107 108 110 113 114 114 112 109 105
25 22 20 19 18 17 16 17 16 15 14 12 11 10 9 9 9 9 8 8 8 6 5 5 4 5 7 10 13 16 18 20 22 24 25 26 28 30 32 35 38 41 43 44 45 47 48 49 50 52 55 58 61 64 67 70 73 75 77 79 79 79 80 84 89 93 95 97 98 100 102 104 105 106 105 104 104 105 106 108 110 112 114 117 117 115 113 109
23 21 20 18 17 17 17 17 16 14 13 12 11 10 9 10 10 9 8 8 7 6 6 6 6 7 9 12 15 17 19 21 22 23 25 26 28 31 33 36 39 42 44 46 47 47 48 50 53 54 57 60 64 67 69 71 75 77 80 83 86 86 86 88 90 93 96 97 98 101 105 106 106 106 106 106 107 107 108 110 112 114 116 118 118 117 115 112
22 20 18 17 17 17 17 16 15 14 13 12 11 11 11 11 10 9 9 8 8 7 8 7 8 9 11 13 15 17 19 21 22 23 25 27 29 32 34 37 39 42 44 46 47 48 49 51 54 57 59 62 65 68 70 73 76 79 82 84 88 90 90 89 90 94 97 99 100 102 104 106 106 105 107 110 110 110 111 111 112 114 116 116 117 117 116 114
20 18 17 17 18 17 16 15 15 14 13 12 12 12 12 11 10 9 9 9 8 8 8 8 9 10 12 14 15 17 19 21 22 24 26 28 30 33 35 37 39 41 44 45 47 48 50 52 55 58 61 62 65 68 71 74 77 80 82 84 87 90 91 90 91 93 97 101 102 101 100 101 103 106 109 112 113 113 113 112 113 114 115 115 116 116 116 115
19 18 18 19 18 17 16 16 15 14 13 12 13 13 13 12 11 10 10 9 9 9 9 10 10 11 13 14 16 18 20 21 23 25 27 29 31 34 36 38 39 41 43 45 47 49 52 54 57 59 61 63 65 67 71 73 76 79 82 84 86 88 91 92 92 91 93 97 100 101 101 101 103 107 109 110 111 113 114 113 113 113 113 114 114 116 117 116
20 20 19 19 18 17 17 17 15 14 14 14 14 14 13 12 11 11 11 10 10 10 10 10 11 13 14 16 18 20 21 23 24 26 28 30 32 34 36 38 40 42 43 45 47 49 52 55 57 59 62 64 67 68 69 71 74 78 81 83 85 88 92 95 94 93 93 95 98 101 103 103 104 107 108 108 110 113 114 115 114 113 113 113 114 115 116 117
22 21 20 19 18 19 18 17 15 15 15 15 15 15 13 12 12 12 11 11 10 10 10 11 13 14 16 19 21 22 23 24 25 27 29 31 33 35 37 39 41 42 44 45 47 50 53 55 57 60 62 65 67 69 71 72 74 77 80 83 86 89 92 95 95 94 94 96 98 100 103 104 105 107 108 110 112 115 117 118 117 117 116 115 114 115 116 117
23 22 20 20 20 20 18 16 16 16 16 16 16 15 14 13 12 12 12 12 11 10 11 12 14 16 19 21 22 23 24 25 27 28 30 32 34 36 37 39 41 42 43 45 47 50 52 55 57 60 63 65 68 70 73 75 76 78 80 83 86 89 92 95 96 95 94 96 98 101 103 104 105 107 109 113 116 118 119 120 121 120 119 118 117 116 117 117
22 21 20 20 20 19 17 16 16 17 17 17 17 15 14 13 13 13 13 13 11 11 12 13 16 18 20 22 23 24 25 26 28 30 31 33 34 35 37 39 40 41 43 45 47 49 51 54 57 60 63 66 68 71 73 75 77 79 82 84 87 89 92 95 98 97 96 96 99 101 103 104 106 108 112 115 117 118 120 122 123 123 122 121 119 118 118 118
22 21 21 21 20 19 17 17 18 18 18 18 17 16 15 14 13 14 14 14 12 11 13 14 17 19 20 22 23 24 26 27 29 30 32 33 34 35 37 38 40 41 43 45 47 49 50 53 56 59 62 65 67 69 71 73 75 78 81 84 86 89 93 95 98 99 97 95 97 101 104 106 108 111 113 116 117 118 120 121 123 124 124 123 121 120 120 119
22 22 22 21 20 19 19 19 19 19 19 19 18 17 16 15 14 15 16 15 13 13 14 16 17 19 20 22 23 24 26 28 30 32 33 34 34 35 37 38 40 41 44 45 47 49 50 52 54 57 60 63 65 67 69 71 73 76 80 83 87 90 93 95 96 98 97 95 95 99 104 106 108 110 112 114 116 118 119 121 123 124 124 124 123 122 122 121
24 23 23 21 20 19 19 20 20 20 20 20 19 18 17 16 16 17 17 16 14 14 15 17 18 19 20 21 23 24 26 28 30 33 34 35 35 36 37 38 40 42 44 46 48 51 52 54 55 57 60 62 63 65 68 71 74 77 81 84 87 90 92 94 95 96 97 96 95 97 101 104 106 108 110 112 114 116 118 120 122 123 124 125 125 124 124 123
24 24 23 21 20 20 20 21 21 20 20 20 20 19 18 17 17 18 18 17 15 15 16 18 20 20 21 22 24 25 26 28 30 33 35 36 36 37 37 39 40 42 45 47 50 53 56 57 58 60 62 64 66 68 71 74 77 79 81 84 86 89 92 94 95 96 97 97 96 96 98 100 103 105 108 110 112 114 116 119 121 123 125 126 126 127 126 125
24 24 22 21 21 21 21 21 21 21 21 21 21 20 19 18 19 20 19 18 17 17 18 20 21 22 22 23 25 26 27 29 30 33 35 36 38 38 39 40 41 43 45 48 51 54 57 59 60 61 64 66 69 71 73 76 78 80 82 83 85 88 91 94 95 97 97 96 95 95 97 99 101 103 105 108 110 113 115 117 120 122 124 126 127 128 128 127
24 23 22 21 21 21 22 22 22 22 22 22 22 21 20 20 21 21 21 20 20 19 20 21 23 24 24 25 26 28 29 31 32 33 35 37 38 39 40 41 42 44 46 48 51 54 56 59 61 62 63 66 69 71 73 75 78 80 82 83 85 87 89 92 95 96 97 96 94 94 97 99 100 101 103 106 109 112 114 116 119 121 124 126 128 129 129 128
24 23 23 22 22 22 23 23 23 23 23 23 23 22 22 22 23 23 23 22 22 22 23 24 25 26 26 27 29 30 32 33 34 35 36 37 39 40 42 43 44 45 47 49 51 53 55 58 62 63 64 65 68 70 73 76 77 79 81 83 84 85 88 91 93 95 96 96 94 93 95 98 99 101 103 106 109 111 114 116 118 121 123 126 127 129 129 129
24 24 23 23 23 23 23 24 24 24 24 25 24 24 24 24 25 25 25 25 25 25 26 27 28 28 29 29 31 32 34 35 36 37 38 39 40 42 43 44 46 47 48 49 51 52 55 57 60 63 65 66 68 70 73 75 77 78 80 82 84 85 86 89 92 93 94 96 94 92 93 97 99 101 103 105 108 111 113 116 118 120 122 124 127 128 129 129
25 25 25 24 24 25 25 25 25 25 26 26 26 26 26 26 27 27 28 28 28 29 29 30 31 32 32 32 33 35 36 37 38 39 40 41 42 44 45 46 47 48 49 50 51 53 54 56 58 61 64 65 67 69 71 73 75 77 79 81 83 85 87 88 91 93 93 95 94 91 91 95 99 101 102 104 107 109 112 115 117 119 120 123 126 128 129 128
26 26 26 26 26 26 26 26 27 27 27 27 27 27 27 27 28 29 29 30 31 31 32 33 34 34 35 35 36 37 38 39 40 42 43 44 45 46 47 48 49 50 50 51 52 53 54 55 57 59 62 64 65 67 69 72 75 77 78 80 82 85 87 88 90 92 93 94 94 92 91 94 97 99 101 102 105 108 110 113 116 117 120 122 124 126 128 127
27 27 27 27 27 27 27 28 28 29 29 29 29 28 29 29 30 30 31 31 32 33 34 35 36 36 37 37 39 40 41 42 43 44 46 47 48 49 50 51 51 51 52 52 53 54 55 56 56 58 61 65 66 68 70 72 74 75 77 79 82 84 87 89 90 92 93 95 95 92 90 93 96 97 99 101 104 107 110 112 114 117 119 122 123 125 126 126
Wind_Direction
189 190 191 190 190 192 194 198 200 202 206 210 213 216 219 222 225 229 233 238 242 246 251 255 260 265 269 273 276 278 279 279 279 279 279 279 280 281 282 284 286 288 289 290 291 293 295 296 297 298 299 299 299 299 299 298 298 299 300 301 301 301 301 300 299 299 298 297 296 295 294 293 292 290 289 288 287 286 286 285 283 282 281 279 277 276 273 271
187 190 193 193 192 193 197 200 199 201 207 211 215 218 221 224 228 232 236 240 245 249 254 259 263 268 272 275 277 277 278 278 278 278 279 280 282 284 286 288 289 291 293 294 296 298 300 301 301 301 301 301 301 301 303 303 304 305 305 305 305 304 302 300 299 297 296 295 294 293 291 290 289 288 287 286 286 286 286 285 284 284 283 282 281 280 278 276
185 189 192 194 195 196 199 202 201 203 207 211 216 220 223 227 231 234 238 243 247 252 257 261 266 270 273 275 276 277 277 277 278 279 281 283 285 288 290 292 294 296 298 300 301 302 303 303 303 304 304 305 306 308 308 308 308 307 307 305 303 301 299 297 296 295 294 293 291 290 289 288 287 287 286 285 284 284 283 282 283 283 282 282 281 281 280 279
185 189 191 195 198 199 201 203 204 206 209 212 216 222 226 230 233 237 241 245 250 254 259 263 267 270 272 273 274 275 276 277 279 281 284 287 290 293 295 297 299 301 303 304 304 304 305 306 307 308 310 311 312 311 309 308 307 305 304 303 301 299 298 296 296 295 294 293 293 292 291 290 288 288 287 285 284 283 282 280 280 279 279 279 279 279 279 278
186 189 192 197 200 201 202 204 205 207 211 214 218 223 228 232 236 239 243 248 252 255 259 263 266 269 271 273 274 275 277 280 283 286 289 292 295 297 299 301 303 304 305 306 307 308 309 311 312 313 314 313 311 309 307 305 304 303 303 302 301 300 299 299 298 298 298 298 298 297 297 296 294 293 292 289 287 285 283 281 279 278 277 277 276 276 276 276
187 190 195 200 204 206 205 204 206 208 211 216 220 225 229 232 236 240 245 248 252 256 259 263 266 269 272 274 276 278 281 284 287 291 294 296 299 301 303 305 306 307 308 309 311 312 314 315 316 316 314 312 310 307 305 304 303 303 303 303 304 303 303 303 303 304 305 306 306 305 306 306 302 299 297 294 291 288 286 283 281 279 277 276 275 274 274 273
190 192 197 201 207 211 206 205 207 209 212 216 222 226 229 233 236 240 244 249 253 256 261 265 268 272 275 277 280 282 285 288 292 295 298 300 303 305 307 308 309 310 311 312 314 316 318 318 317 315 313 311 309 307 306 307 307 308 309 310 310 310 310 311 312 314 315 316 316 315 315 315 311 308 304 301 297 294 290 286 283 281 278 276 275 273 273 272
193 195 198 200 210 214 206 204 209 210 213 217 224 228 230 233 238 242 247 251 255 259 263 266 270 274 278 280 283 286 289 293 296 299 302 304 306 308 310 310 311 312 314 316 318 320 320 318 316 314 313 312 310 310 312 314 315 316 317 317 318 318 320 322 323 324 325 326 327 326 325 323 320 318 314 311 306 302 297 292 288 284 281 278 276 274 272 271
196 196 199 202 211 215 207 204 208 209 213 221 229 231 232 235 241 246 250 255 258 261 264 268 272 277 281 283 287 290 294 297 299 302 305 307 309 310 311 312 314 317 319 321 322 321 319 317 316 317 316 316 316 319 321 323 324 326 326 326 327 329 330 333 333 334 334 335 334 333 333 331 328 325 323 319 315 310 304 299 294 290 286 283 279 276 274 271
197 199 201 204 211 215 210 205 206 207 213 225 233 234 235 239 244 250 252 256 259 263 268 273 278 281 284 287 291 295 297 300 302 305 308 310 311 312 314 317 319 321 323 323 322 320 319 320 322 323 323 324 328 331 332 334 336 338 337 336 337 340 341 341 341 341 340 339 338 338 338 336 334 331 329 326 321 316 311 306 301 297 292 289 285 282 279 276
195 204 207 207 211 214 210 205 205 207 214 229 236 236 239 242 245 250 253 257 263 268 274 279 282 284 287 290 294 298 300 302 305 308 310 311 313 317 320 321 323 325 325 324 322 322 324 327 329 330 331 335 338 339 341 343 344 344 344 345 346 348 348 347 346 345 344 343 342 342 342 341 339 337 335 332 328 323 317 313 308 304 300 296 292 288 284 281
195 205 210 211 213 213 209 204 205 207 218 233 239 237 238 242 245 251 257 263 269 274 279 282 283 285 289 293 297 300 302 305 308 310 311 314 320 324 323 323 326 327 326 325 325 327 331 333 335 336 339 341 343 344 346 347 348 349 350 351 351 351 351 350 349 348 346 346 346 344 344 343 342 341 340 338 335 331 326 321 317 312 307 302 298 294 290 286
199 207 213 213 210 208 205 204 204 208 218 233 241 239 237 242 248 256 264 270 276 280 282 283 284 287 292 296 300 302 305 308 309 311 315 322 326 325 325 328 328 327 328 328 331 333 335 338 340 342 346 347 347 349 351 351 353 354 354 355 354 354 354 353 352 351 350 349 348 346 345 345 345 344 344 342 340 337 333 328 324 319 314 309 305 300 296 291
197 210 215 213 204 200 201 201 202 208 219 231 242 244 242 246 253 260 268 274 280 281 282 283 287 292 296 300 303 305 307 309 311 316 323 328 326 327 330 332 330 331 333 335 337 338 340 343 344 348 350 349 352 356 357 357 357 358 357 357 357 358 358 357 356 355 353 351 348 347 347 347 347 346 346 346 344 342 338 333 329 324 320 316 311 306 301 297
193 207 214 213 204 200 201 199 201 209 223 233 245 252 249 250 257 263 270 276 278 278 280 285 291 296 300 303 306 307 308 311 317 324 328 327 328 333 335 334 336 338 340 342 342 343 345 346 349 352 352 353 358 0 360 359 358 359 359 360 1 2 1 0 359 357 355 352 350 349 349 348 348 348 348 348 347 345 341 337 333 329 325 321 316 311 306 301
197 206 213 215 206 199 199 201 206 216 229 235 243 253 254 254 260 265 270 272 273 276 282 289 295 300 303 306 306 308 312 318 323 326 326 328 335 339 338 340 343 344 347 348 348 348 349 351 355 356 356 0 3 2 1 2 2 2 2 2 3 4 3 3 1 358 355 354 352 350 350 350 350 350 350 349 348 347 344 341 337 333 330 326 322 317 312 308
204 208 211 214 207 197 198 202 209 222 233 239 243 250 257 260 263 264 264 266 271 279 287 293 299 302 305 306 309 313 319 323 324 323 328 338 344 344 344 348 349 352 354 353 352 352 353 357 358 358 3 7 5 3 4 4 4 3 2 2 2 3 3 3 1 359 356 355 354 351 351 352 352 351 351 350 349 349 346 343 340 337 334 331 327 324 320 316
206 207 209 212 207 198 199 199 203 215 226 238 247 252 257 258 257 258 262 269 276 284 291 296 300 304 306 310 315 320 322 321 323 329 339 347 349 350 353 356 358 360 359 357 357 356 358 360 360 3 8 9 5 3 3 2 2 1 2 3 3 3 3 2 1 1 359 356 355 354 354 354 353 352 351 351 351 351 349 346 344 341 338 335 332 328 326 323
205 205 207 211 208 201 198 196 201 213 220 227 240 253 259 259 259 261 268 275 283 289 294 298 302 306 310 315 319 322 323 326 333 342 349 353 356 360 2 4 5 5 5 4 3 1 2 3 5 8 8 5 3 2 2 3 3 4 5 6 5 4 3 2 2 2 1 358 358 358 356 355 353 351 351 352 353 353 353 351 349 346 342 338 335 332 329 327
201 202 206 209 207 201 198 199 205 216 224 231 243 257 264 262 263 269 276 282 287 292 296 300 304 309 314 318 322 326 329 335 343 349 354 358 4 8 8 8 8 9 10 8 5 4 5 6 7 7 4 3 4 4 4 4 5 6 7 7 7 5 4 4 4 3 2 1 1 359 357 355 352 351 352 353 353 355 357 356 354 351 347 343 339 336 333 330
196 199 203 205 204 201 200 203 210 220 230 237 243 252 258 259 264 272 280 285 290 294 298 303 308 312 316 321 326 330 334 343 351 357 1 5 10 11 10 10 11 13 13 10 8 7 6 7 8 6 4 5 6 6 5 5 6 9 9 8 7 7 6 5 5 5 4 4 2 359 357 355 352 353 354 353 355 358 0 0 359 356 352 348 344 340 337 334
193 197 199 201 200 200 202 206 213 220 226 229 233 242 253 261 269 276 282 287 292 295 300 305 310 313 317 324 329 335 346 354 359 3 6 9 11 13 13 13 13 13 12 10 9 7 6 7 7 5 6 6 5 6 5 6 7 9 9 8 7 8 8 6 6 6 6 4 1 359 358 356 354 355 355 355 357 0 2 3 2 359 355 352 348 345 342 339
190 193 194 196 195 194 198 205 212 216 220 228 236 246 257 265 272 278 283 288 292 296 301 306 310 313 321 330 338 352 0 357 357 360 3 8 12 14 14 13 11 10 7 6 5 4 5 5 4 4 5 5 5 5 6 6 6 7 8 8 7 7 8 7 6 7 7 4 1 0 358 357 357 356 356 357 360 2 4 5 4 1 358 355 352 349 346 343
187 189 190 190 186 187 196 205 212 217 226 236 245 254 262 268 273 278 283 288 290 293 301 306 309 316 326 334 343 352 350 349 356 1 5 11 14 14 14 12 9 6 4 2 1 2 2 1 2 3 3 4 5 5 6 6 5 5 7 8 8 7 7 7 7 8 6 3 3 2 359 358 359 357 358 360 1 3 5 6 5 4 1 358 356 353 350 347
183 185 183 181 182 191 200 205 210 217 227 239 249 256 261 266 272 278 283 285 286 290 300 305 308 317 322 322 331 336 341 352 360 5 10 13 14 13 11 10 7 4 2 2 2 3 3 2 2 2 2 4 5 5 6 5 4 5 5 7 8 7 8 8 8 7 5 4 4 2 1 1 0 359 0 1 3 5 6 6 6 6 4 2 359 356 354 351
178 177 174 178 188 196 201 204 210 219 230 242 250 253 257 266 273 278 279 279 284 292 296 298 299 302 300 301 324 338 350 0 4 7 11 12 14 13 9 7 5 3 2 3 4 6 5 4 3 3 3 4 4 5 5 5 5 4 5 6 6 7 8 8 7 6 5 5 4 3 3 4 3 3 3 4 5 6 7 7 7 6 6 4 2 0 357 355
171 170 173 185 192 196 199 206 215 224 235 242 245 250 259 266 271 274 273 272 279 284 280 275 277 280 288 305 326 342 354 3 6 8 8 10 12 11 8 5 3 2 2 3 5 5 5 4 3 3 3 3 4 4 4 5 6 5 5 5 5 5 6 7 6 5 5 6 5 5 5 5 5 5 6 6 7 8 9 9 8 7 7 6 5 3 1 358
168 172 181 190 193 195 200 208 218 227 233 236 243 252 260 265 267 264 260 257 264 267 264 263 268 282 306 325 341 352 358 2 4 5 6 8 8 7 7 4 1 0 1 3 4 4 2 2 2 2 3 3 3 4 5 5 5 6 6 5 5 4 5 6 6 5 6 6 6 7 7 6 5 5 7 8 9 10 11 11 9 8 8 8 7 5 3 1
171 179 187 193 197 201 206 213 220 225 229 236 244 252 258 260 257 251 249 250 248 249 256 262 270 299 329 343 351 354 356 359 1 3 3 4 4 4 3 1 360 360 1 2 2 1 0 360 0 1 2 3 4 4 5 5 5 6 6 6 5 4 3 4 5 5 5 6 7 8 8 8 7 7 8 9 11 12 12 12 11 10 9 9 8 7 5 3
176 185 193 198 202 206 209 211 215 221 229 237 244 249 252 247 240 239 244 242 237 238 246 255 280 315 340 349 349 351 354 358 0 0 0 0 1 1 0 360 360 360 0 360 359 358 358 359 360 0 1 3 5 5 4 4 4 5 5 6 7 5 3 3 4 5 5 7 9 9 8 9 9 10 10 10 11 12 12 12 12 11 11 10 9 8 7 5
178 188 197 200 201 200 202 206 214 223 231 237 242 243 238 230 226 230 233 230 227 229 239 255 288 318 337 344 344 347 350 353 355 355 356 358 359 0 360 359 358 357 357 356 355 355 357 358 358 359 360 2 4 4 4 4 4 4 4 6 6 6 4 3 3 5 6 7 9 9 8 9 11 11 10 10 11 11 12 12 13 13 12 11 10 9 9 7
180 189 193 191 190 193 201 210 218 225 230 234 234 230 223 218 217 224 227 226 226 230 245 268 295 319 334 339 339 341 344 347 349 351 354 357 358 358 356 355 354 353 353 353 354 355 355 356 357 358 359 1 3 4 4 3 3 4 4 4 5 6 5 4 4 5 6 7 7 7 9 11 11 11 10 10 10 11 12 12 13 13 13 12 11 10 9 9
182 183 182 182 187 197 206 213 218 223 226 226 221 216 214 214 217 222 225 225 227 235 254 275 295 311 322 329 333 337 342 344 346 348 351 354 354 354 352 351 351 352 352 352 353 354 354 355 356 358 359 0 2 3 3 3 3 3 2 2 4 5 6 6 6 6 6 7 6 7 9 11 11 11 10 10 11 11 12 13 13 13 14 14 13 11 10 9
178 177 180 185 194 203 208 213 217 219 218 215 211 209 211 216 220 224 225 225 228 242 260 275 289 299 312 323 330 336 340 341 343 346 349 351 351 350 350 350 350 351 351 351 352 353 354 355 356 358 359 0 1 2 2 3 2 2 2 2 2 4 6 6 6 5 6 7 7 7 8 9 10 10 11 11 11 11 12 13 13 14 14 14 14 12 11 10
174 177 185 194 200 206 210 213 213 211 207 204 203 207 214 221 225 227 227 227 232 249 263 275 285 297 311 322 330 336 338 339 341 344 346 348 348 348 348 349 350 350 351 351 351 353 354 355 356 357 359 0 0 1 1 2 2 2 2 2 2 3 5 6 5 5 5 6 7 8 8 8 9 10 11 12 11 12 12 13 13 14 15 15 14 14 12 11
176 183 193 201 205 209 210 209 207 203 201 201 205 210 217 225 230 231 230 232 240 252 263 273 285 300 312 323 331 335 337 338 340 342 344 346 346 346 347 348 349 350 350 351 351 352 353 355 356 356 357 359 360 0 1 1 2 1 1 2 2 2 3 5 6 6 5 5 6 7 8 8 8 10 12 12 12 12 12 13 13 14 14 14 14 14 13 12
184 194 200 204 206 207 205 201 199 198 200 205 211 216 221 228 233 234 234 237 242 250 261 275 289 302 314 324 329 331 334 336 338 340 342 344 345 345 346 348 349 350 350 350 351 351 352 354 355 356 356 357 359 0 1 1 1 1 1 2 2 2 2 4 6 6 5 6 5 5 6 7 8 10 11 12 12 12 12 13 13 13 13 14 14 14 14 13
194 201 204 205 204 201 197 194 194 197 204 210 215 220 226 232 234 235 238 240 242 251 265 280 294 305 315 322 325 328 330 331 334 336 338 341 343 344 345 347 348 349 348 349 350 351 352 353 354 354 355 356 357 359 1 1 1 2 1 1 1 2 2 3 4 5 5 5 6 5 5 6 8 10 10 11 12 13 12 12 13 13 13 13 13 14 14 14
200 204 206 206 203 196 192 191 195 202 209 214 219 225 230 234 234 237 240 240 242 256 273 288 300 309 316 321 325 327 327 328 330 332 335 337 339 342 344 346 346 347 347 348 349 350 351 352 353 353 354 355 356 358 359 0 1 1 1 1 1 2 2 2 3 4 4 4 5 5 5 5 7 8 8 10 11 12 12 12 12 12 12 12 13 13 14 14
203 206 207 205 200 194 191 193 200 207 212 217 222 227 232 234 235 238 242 241 247 264 281 295 304 311 318 323 326 328 328 328 328 330 332 334 337 341 343 344 345 344 345 347 348 350 350 351 352 352 353 354 355 356 358 359 359 360 0 0 1 2 2 2 2 3 3 3 3 5 5 5 6 7 8 9 10 11 11 11 11 11 11 12 12 12 13 14
205 207 206 201 196 193 194 199 206 211 216 221 226 229 232 233 235 240 243 245 255 272 287 299 307 314 320 324 327 329 330 331 330 330 331 333 336 339 341 342 342 343 344 346 347 348 349 350 351 351 352 353 354 355 357 357 358 358 359 360 0 1 1 1 1 2 3 3 2 3 4 4 5 6 8 9 9 10 10 11 11 11 11 11 11 12 12 13
206 205 201 197 194 194 199 205 211 215 219 224 228 231 233 233 237 242 245 251 261 277 291 301 309 316 321 324 328 330 332 334 334 333 333 333 335 337 339 340 341 342 343 344 345 347 348 349 350 351 351 352 353 354 355 356 357 357 358 359 0 0 1 1 1 1 2 2 2 2 3 4 5 6 7 8 8 8 9 9 10 10 10 10 11 11 11 12
204 201 198 196 195 199 205 210 214 217 220 225 229 233 235 236 240 244 248 256 266 280 292 301 309 316 319 323 326 329 332 335 336 336 335 334 334 336 337 338 340 342 342 343 343 344 346 348 349 350 350 351 352 353 353 354 356 357 358 359 0 1 0 0 0 0 0 1 2 2 2 4 5 6 6 7 8 8 7 8 9 9 10 10 10 11 11 11
201 198 196 197 200 206 211 215 217 219 222 226 231 234 238 241 245 249 252 259 269 283 293 301 309 313 316 319 321 326 330 333 335 336 335 334 333 334 335 337 339 340 341 341 341 342 343 346 348 349 349 350 351 352 353 353 355 357 358 359 0 0 359 359 359 360 359 359 1 2 2 3 4 5 6 6 7 7 7 7 7 8 9 9 10 10 10 10
200 198 198 200 206 212 217 220 223 224 227 229 233 236 241 246 251 254 257 261 270 283 293 300 306 310 313 315 318 322 326 330 332 333 333 333 333 333 334 336 338 338 339 340 340 341 342 344 347 348 348 349 350 352 353 354 354 356 357 358 359 359 358 358 358 359 359 359 359 1 2 2 4 5 5 5 6 6 6 6 6 7 7 8 9 10 10 10
199 199 201 205 212 217 221 224 226 229 232 234 236 240 245 251 256 259 260 263 270 281 291 299 304 308 309 311 314 319 323 327 329 330 330 331 331 332 333 334 336 336 338 339 339 340 341 342 345 347 348 349 350 351 352 353 353 354 355 356 357 357 357 357 357 358 358 358 358 359 0 2 3 4 4 4 5 5 6 6 5 6 6 7 8 9 9 9
201 203 205 211 217 221 225 227 229 232 234 236 240 245 250 255 260 263 264 266 270 278 288 296 302 305 307 308 311 314 318 322 324 327 328 328 329 330 331 332 333 334 335 337 338 339 340 341 343 346 348 349 350 350 350 351 352 352 353 354 355 355 356 356 356 357 357 358 358 358 359 0 1 2 3 4 4 5 5 5 5 5 6 6 7 8 9 9
205 208 211 216 221 224 227 230 232 234 236 239 244 250 255 259 263 266 268 270 273 277 285 292 298 301 304 306 308 311 314 317 320 322 324 325 326 327 328 329 330 331 333 334 336 338 339 341 342 344 346 347 348 349 349 350 351 351 352 352 353 353 355 355 355 355 356 356 357 357 358 359 360 1 2 3 4 4 4 4 4 4 5 5 6 7 8 8
209 213 217 221 224 228 231 233 235 237 239 242 247 253 258 262 265 268 271 273 276 279 283 289 295 298 300 303 306 309 312 314 317 319 320 322 323 324 325 327 328 329 330 332 334 336 338 340 341 342 343 346 347 348 348 348 349 349 351 351 350 351 353 354 354 354 355 355 356 357 357 358 359 360 1 2 3 3 3 3 4 4 4 5 5 6 7 8
214 218 222 225 228 232 234 236 238 240 242 246 251 256 260 264 267 270 272 275 278 281 284 288 293 295 297 299 303 307 309 312 314 316 318 320 321 322 322 323 324 326 327 329 331 333 336 338 340 341 341 343 345 346 346 346 347 348 349 349 349 350 352 353 353 353 354 354 355 356 357 357 358 359 1 2 2 2 3 2 3 3 4 4 5 5 6 7
219 223 226 229 233 236 238 239 242 244 247 250 254 258 262 266 268 271 273 276 279 282 285 288 291 293 295 298 301 304 307 309 311 313 316 318 319 321 321 322 322 323 324 327 329 331 333 336 338 339 339 340 342 343 344 345 346 347 347 348 349 349 350 351 352 352 352 353 355 355 356 357 358 358 360 1 1 2 2 2 2 3 3 4 4 4 5 6
223 227 230 233 237 240 242 244 246 249 251 255 258 261 264 267 270 272 275 278 281 283 286 288 291 293 295 297 300 303 305 307 309 311 313 315 317 319 320 321 321 322 323 325 326 328 331 333 335 337 338 338 340 341 343 344 344 344 345 347 348 348 348 349 350 351 351 352 354 355 356 356 357 357 359 0 1 1 2 2 2 2 3 3 3 3 4 5